Regional Weather Roundup
Issued by NWS

Home | Current Version | Previous Version | Text Only | Print | Product List | Glossary Off
Versions: 1 2 3 4 5 6 7 8 9 10 11 12 13 14 15 16 17 18 19 20 21 22 23 24 25 26 27 28 29 30 31 32 33 34 35 36 37 38 39 40 41 42 43 44 45 46 47 48 49 50

000
ASUS43 KLSX 041457
RWRMO

WEATHER SUMMARY FOR MISSOURI
NATIONAL WEATHER SERVICE SPRINGFIELD MO
1000 AM CDT WED MAY 04 2016

NOTE: "FAIR" INDICATES FEW OR NO CLOUDS BELOW 12,000 FEET WITH NO
       SIGNIFICANT WEATHER AND/OR OBSTRUCTIONS TO VISIBILITY.
       CURRENT SKY AND/OR WEATHER CONDITIONS ARE NOT AVAILABLE FOR
       CHILLICOTHE AND FARMINGTON.

MOZ001>031-035>038-043-044-053-054-041600-
...NORTHERN AND WESTERN MISSOURI...

CITY           SKY/WX    TMP DP  RH WIND       PRES   REMARKS
KANSAS CTY INT SUNNY     60  41  49 N15       29.97R
LEE`S SUMMIT   SUNNY     61  40  45 N17       29.95R
ST JOSEPH      SUNNY     61  41  47 N15       29.99R
CHILLICOTHE      N/A     62  45  53 N9G18     29.94R

$$
MOZ066>068-077>081-088>096-101>105-041600-
...SOUTHWEST MISSOURI...

CITY           SKY/WX    TMP DP  RH WIND       PRES   REMARKS
SPRINGFIELD    SUNNY     63  44  50 NW15G26   29.89R
JOPLIN         SUNNY     65  48  54 NW9       29.94S
BRANSON        SUNNY     64  46  52 W12G23    29.89F

$$
MOZ032>034-039>042-045>050-055>058-069>072-041600-
...CENTRAL MISSOURI...

CITY           SKY/WX    TMP DP  RH WIND       PRES   REMARKS
COLUMBIA       NOT AVBL
JEFFERSON CITY SUNNY     64  45  49 N12       29.84R
ROLLA          SUNNY     62  47  57 NW16      29.81R
SEDALIA        SUNNY     63  47  55 N17       29.91R
WARRENSBURG    SUNNY     61  43  51 NW12G17   29.92R

$$
MOZ051-052-059>065-041600-
...EAST CENTRAL MISSOURI...

CITY           SKY/WX    TMP DP  RH WIND       PRES   REMARKS
ST LOUIS INTL  MOSUNNY   64  46  52 N20G25    29.77R

$$
MOZ072>076-082>087-097>100-106>115-041600-
...SOUTH CENTRAL AND SOUTHEAST MISSOURI...

CITY           SKY/WX    TMP DP  RH WIND       PRES   REMARKS
CAPE GIRARDEAU CLOUDY    59  48  67 W14       29.76R
POPLAR BLUFF   PTSUNNY   63  47  55 W10       29.77F
WEST PLAINS    MOSUNNY   64  46  52 W16G24    29.83F

$$



USA.gov is the U.S. government's official web portal to all federal, state and local government web resources and services.